Tracking 19149 objects as of 20-Apr-2018
HD Live streaming from Space Station
objects crossing your sky now

CZ-3B DEB

Track CZ-3B DEB now!


NORAD ID: 40160
Int'l Code: 2010-042M
Perigee: 1,095.3 km
Apogee: 41,253.7 km
Inclination: 26.5 °
Period: 758.3 minutes
Semi major axis: 27545 km
RCS: Unknown
Launch date: September 4, 2010
Source: People's Republic of China (PRC)
Launch site: Xichang Space Center, China (XSC)

Note: This is SATELLITE DEBRIS
aabbcc
Your satellite tracking list
Your tracking list is empty




NASA's NSSDC Master Catalog

Two Line Element Set (TLE):
1 40160U 10042M   18106.44833015 +.00000196 +00000-0 +00000-0 0  9998
2 40160 026.5189 263.1504 7289477 227.1399 022.2866 01.89900875030525
Source of the keplerian elements: AFSPC